| time (UTC) | temp C | wind direction | speed KPH | gust KPH | rain 1hr cm | rain 24hr cm | rain mn cm | humidity % | barometer mb |
| 20260505124212 | 12 | 180 | 1.6 | 3.2 | 0.00 | 0.00 | 0.00 | 90 | 1005.4 |
| 20260505122712 | 12 | 180 | 8.0 | 11.3 | 0.00 | 0.00 | 0.00 | 90 | 1005.1 |
| 20260505121212 | 12 | 180 | 4.8 | 8.0 | 0.00 | 0.00 | 0.00 | 90 | 1005.1 |
| 20260505115712 | 12 | 158 | 4.8 | 8.0 | 0.00 | 0.00 | 0.00 | 90 | 1005.4 |
| 20260505114212 | 11 | 248 | 4.8 | 9.7 | 0.00 | 0.00 | 0.00 | 91 | 1005.4 |
| 20260505112712 | 11 | 180 | 8.0 | 9.7 | 0.00 | 0.00 | 0.00 | 91 | 1005.1 |
| 20260505111212 | 11 | 203 | 3.2 | 3.2 | 0.00 | 0.00 | 0.00 | 91 | 1004.7 |
| 20260505101212 | 11 | 203 | 3.2 | 4.8 | 0.00 | 0.00 | 0.00 | 92 | 1004.7 |
| 20260505095712 | 11 | 180 | 8.0 | 9.7 | 0.00 | 0.00 | 0.00 | 92 | 1004.7 |
| 20260505094212 | 11 | 158 | 4.8 | 12.9 | 0.00 | 0.00 | 0.00 | 92 | 1004.7 |
| 20260505092712 | 11 | 180 | 9.7 | 11.3 | 0.00 | 0.00 | 0.00 | 92 | 1004.1 |
| 20260505091212 | 11 | 180 | 4.8 | 8.0 | 0.00 | 0.00 | 0.00 | 91 | 1004.1 |
| 20260505085712 | 11 | 203 | 6.4 | 11.3 | 0.00 | 0.00 | 0.00 | 91 | 1004.1 |
| 20260505084212 | 12 | 225 | 1.6 | 3.2 | 0.00 | 0.00 | 0.00 | 91 | 1004.1 |
| 20260505082712 | 12 | 203 | 6.4 | 8.0 | 0.00 | 0.00 | 0.00 | 90 | 1004.1 |
| 20260505081212 | 12 | 203 | 11.3 | 12.9 | 0.00 | 0.00 | 0.00 | 90 | 1003.7 |
| 20260505075712 | 12 | 158 | 1.6 | 3.2 | 0.00 | 0.00 | 0.00 | 89 | 1003.7 |
| 20260505074213 | 12 | 158 | 4.8 | 8.0 | 0.00 | 0.00 | 0.00 | 89 | 1003.7 |
| 20260505072713 | 12 | 180 | 3.2 | 3.2 | 0.00 | 0.00 | 0.00 | 88 | 1003.7 |
| 20260505071213 | 12 | 270 | 3.2 | 4.8 | 0.00 | 0.00 | 0.00 | 87 | 1003.4 |
| 20260505065713 | 13 | 203 | 1.6 | 3.2 | 0.00 | 0.00 | 0.00 | 86 | 1003.4 |
| 20260505064213 | 13 | 180 | 1.6 | 3.2 | 0.00 | 0.00 | 0.00 | 85 | 1003.0 |
| 20260505062713 | 13 | 225 | 4.8 | 4.8 | 0.00 | 0.00 | 0.00 | 83 | 1003.0 |
| 20260505061213 | 14 | 180 | 6.4 | 8.0 | 0.00 | 0.00 | 0.00 | 82 | 1002.7 |
| 20260505055713 | 15 | 180 | 4.8 | 8.0 | 0.00 | 0.00 | 0.00 | 81 | 1002.7 |
| 20260505054213 | 15 | 225 | 3.2 | 3.2 | 0.00 | 0.00 | 0.00 | 80 | 1002.4 |
| 20260505052713 | 15 | 158 | 4.8 | 8.0 | 0.00 | 0.00 | 0.00 | 80 | 1002.4 |
| 20260505051213 | 15 | 203 | 3.2 | 3.2 | 0.00 | 0.00 | 0.00 | 78 | 1002.4 |
| 20260505041213 | 17 | 203 | 1.6 | 3.2 | 0.00 | 0.00 | 0.00 | 71 | 1001.7 |
| 20260505035713 | 18 | 203 | 0.0 | 0.0 | 0.00 | 0.00 | 0.00 | 69 | 1001.7 |
| 20260505034213 | 18 | 225 | 0.0 | 0.0 | 0.00 | 0.00 | 0.00 | 66 | 1001.4 |
| 20260505032713 | 20 | 225 | 1.6 | 3.2 | 0.00 | 0.00 | 0.00 | 62 | 1001.4 |
| 20260505031213 | 20 | 293 | 0.0 | 0.0 | 0.00 | 0.00 | 0.00 | 54 | 1000.7 |
| 20260505025713 | 21 | 180 | 0.0 | 0.0 | 0.00 | 0.00 | 0.00 | 52 | 1001.0 |
| 20260505024213 | 21 | 293 | 1.6 | 3.2 | 0.00 | 0.00 | 0.00 | 52 | 1001.0 |
| 20260505022712 | 22 | 293 | 3.2 | 4.8 | 0.00 | 0.00 | 0.00 | 51 | 1000.7 |
| 20260505021213 | 22 | 225 | 0.0 | 1.6 | 0.00 | 0.00 | 0.00 | 51 | 1001.0 |
| 20260505015712 | 22 | 270 | 3.2 | 3.2 | 0.00 | 0.00 | 0.00 | 50 | 1000.7 |
| 20260505014212 | 24 | 225 | 0.0 | 1.6 | 0.00 | 0.00 | 0.00 | 48 | 1000.7 |
| 20260505012712 | 25 | 225 | 6.4 | 8.0 | 0.00 | 0.00 | 0.00 | 44 | 1000.7 |
| 20260505011212 | 25 | 315 | 1.6 | 3.2 | 0.00 | 0.00 | 0.00 | 42 | 1000.7 |
| 20260505005712 | 25 | 293 | 3.2 | 3.2 | 0.00 | 0.00 | 0.00 | 42 | 1000.7 |
| 20260505004212 | 25 | 158 | 4.8 | 6.4 | 0.00 | 0.00 | 0.00 | 41 | 1001.0 |
| 20260505002712 | 25 | 225 | 3.2 | 3.2 | 0.00 | 0.00 | 0.00 | 40 | 1000.7 |
| 20260505001212 | 25 | 113 | 6.4 | 8.0 | 0.00 | 0.00 | 0.00 | 40 | 1001.0 |
| 20260504235712 | 25 | 180 | 6.4 | 11.3 | 0.00 | 0.00 | 0.00 | 40 | 1001.4 |
| 20260504234212 | 25 | 203 | 4.8 | 4.8 | 0.00 | 0.00 | 0.00 | 41 | 1001.0 |
| 20260504232712 | 25 | 203 | 8.0 | 8.0 | 0.00 | 0.00 | 0.00 | 40 | 1001.0 |
| 20260504231212 | 25 | 180 | 3.2 | 4.8 | 0.00 | 0.00 | 0.00 | 39 | 1001.0 |
| 20260504225712 | 25 | 158 | 1.6 | 3.2 | 0.00 | 0.00 | 0.00 | 40 | 1001.4 |
| 20260504224212 | 25 | 225 | 4.8 | 8.0 | 0.00 | 0.00 | 0.00 | 40 | 1001.4 |
| 20260504222712 | 25 | 180 | 3.2 | 3.2 | 0.00 | 0.00 | 0.00 | 38 | 1001.7 |
| 20260504221212 | 25 | 180 | 3.2 | 3.2 | 0.00 | 0.00 | 0.00 | 38 | 1001.7 |
| 20260504215712 | 25 | 248 | 4.8 | 6.4 | 0.00 | 0.00 | 0.00 | 38 | 1002.0 |
| 20260504214212 | 25 | 225 | 3.2 | 4.8 | 0.00 | 0.00 | 0.00 | 45 | 1001.7 |
| 20260504212712 | 24 | 270 | 3.2 | 3.2 | 0.00 | 0.00 | 0.00 | 48 | 1002.0 |
| 20260504211212 | 25 | 225 | 3.2 | 4.8 | 0.00 | 0.00 | 0.00 | 46 | 1002.0 |
| 20260504205712 | 24 | 203 | 4.8 | 4.8 | 0.00 | 0.00 | 0.00 | 45 | 1002.0 |
| 20260504204212 | 25 | 203 | 1.6 | 3.2 | 0.00 | 0.00 | 0.00 | 44 | 1002.0 |
| 20260504202712 | 25 | 158 | 6.4 | 11.3 | 0.00 | 0.00 | 0.00 | 37 | 1002.0 |
| 20260504201212 | 24 | 248 | 3.2 | 3.2 | 0.00 | 0.00 | 0.00 | 41 | 1002.0 |
| 20260504195712 | 24 | 225 | 6.4 | 8.0 | 0.00 | 0.00 | 0.00 | 39 | 1002.0 |
| 20260504194212 | 25 | 270 | 3.2 | 3.2 | 0.00 | 0.00 | 0.00 | 35 | 1002.0 |
| 20260504192712 | 25 | 225 | 4.8 | 4.8 | 0.00 | 0.00 | 0.00 | 35 | 1002.4 |
| 20260504191212 | 24 | 158 | 1.6 | 3.2 | 0.00 | 0.00 | 0.00 | 36 | 1002.4 |
| 20260504185712 | 26 | 248 | 3.2 | 3.2 | 0.00 | 0.00 | 0.00 | 37 | 1002.4 |
| 20260504184212 | 25 | 180 | 3.2 | 4.8 | 0.00 | 0.00 | 0.00 | 39 | 1002.4 |
| 20260504182712 | 25 | 225 | 3.2 | 3.2 | 0.00 | 0.00 | 0.00 | 39 | 1002.4 |
| 20260504181212 | 25 | 248 | 3.2 | 3.2 | 0.00 | 0.00 | 0.00 | 39 | 1002.4 |
| 20260504175712 | 24 | 270 | 3.2 | 3.2 | 0.00 | 0.00 | 0.00 | 39 | 1002.4 |
| 20260504174212 | 24 | 293 | 1.6 | 3.2 | 0.00 | 0.00 | 0.00 | 38 | 1002.7 |
| 20260504172712 | 25 | 315 | 1.6 | 3.2 | 0.00 | 0.00 | 0.00 | 40 | 1002.4 |
| 20260504171212 | 24 | 315 | 0.0 | 3.2 | 0.00 | 0.00 | 0.00 | 41 | 1002.7 |
| 20260504141213 | 15 | 135 | 0.0 | 0.0 | 0.00 | 0.00 | 0.00 | 73 | 1001.4 |